Regional Weather Roundup
Issued by NWS

Home | Current Version | Previous Version | Graphics & Text | Print | Product List | Glossary Off
Versions: 1 2 3 4 5 6 7 8 9 10 11 12 13 14 15 16 17 18 19 20 21 22 23 24 25 26 27 28 29 30 31 32 33 34 35 36 37 38 39 40 41 42 43 44 45 46 47 48 49 50

000
ASUS43 KTOP 172208
RWRKS

WEATHER ROUNDUP FOR KANSAS
NATIONAL WEATHER SERVICE GOODLAND KS
400 PM CST SAT FEB 17 2018

NOTE:  "FAIR" INDICATES FEW OR NO CLOUDS BELOW 12,000 FEET WITH NO
SIGNIFICANT WEATHER AND/OR OBSTRUCTIONS TO VISIBILITY.

KSZ001>006-013>018-027>032-041>047-172300-
NORTHWEST KANSAS

CITY           SKY/WX    TMP DP  RH WIND       PRES   REMARKS
GOODLAND       SUNNY     52  12  20 N6        30.05F
HAYS           SUNNY     56  12  17 N14       30.10R
HILL CITY      SUNNY     55  14  19 NW12      30.10R
RUSSELL        SUNNY     59  15  18 N13       30.08F
$$

KSZ061>065-074>080-084>089-172300-
SOUTHWEST KANSAS

CITY           SKY/WX    TMP DP  RH WIND       PRES   REMARKS
DODGE CITY     SUNNY     58  11  15 N13G28    30.11S
ELKHART        SUNNY     59  17  19 CALM      30.13S
GARDEN CITY    SUNNY     55   6  14 N14       30.10F
GREAT BEND     SUNNY     57  13  17 N10       30.11S
LIBERAL        SUNNY     58   9  14 NE6       30.14R
PRATT          SUNNY     57   8  14 N18       30.11F
$$

KSZ066>073-081>083-090>101-172300-
SOUTHEAST KANSAS

CITY           SKY/WX    TMP DP  RH WIND       PRES   REMARKS
CHANUTE        SUNNY     59  20  22 N13G29    30.12R
COFFEYVILLE    SUNNY     61  31  32 N8        30.11S
HUTCHINSON     SUNNY     59  12  15 N13       30.12R
MEDICINE LODGE   N/A     60  12  15 N12G23    30.12R
NEWTON         SUNNY     56  12  17 N9G18     30.13R
PARSONS        SUNNY     60  24  25 N13G22    30.11S
WICHITA INTL   SUNNY     60  10  14 N17       30.12R
WICHITA JABRA  SUNNY     59   9  13 NW14      30.12R
WICHITA MCCONL SUNNY     59   8  13 N17       30.12R
WINFIELD       SUNNY     60  15  17 NE15      30.13R
$$

KSZ007>012-019>026-033>040-048>060-102>105-172300-
NORTHEAST KANSAS

CITY           SKY/WX    TMP DP  RH WIND       PRES   REMARKS
CONCORDIA      SUNNY     55  14  19 W12       30.09S
EMPORIA        SUNNY     56  16  20 NW10      30.11S
LAWRENCE       SUNNY     56  19  23 NW12      30.11R
MANHATTAN      SUNNY     58  15  18 N9        30.10S
MARYSVILLE     SUNNY     54  21  28 NW12      30.09S
OLATHE IND     SUNNY     54  19  25 NW15      30.11R
OLATHE EXE     SUNNY     53  20  27 N12       30.10R
SALINA         SUNNY     60  15  17 NW13      30.12R
TOPEKA BILLARD SUNNY     57  20  23 N9        30.10S
TOPEKA FORBES  SUNNY     56  19  23 NW15G23   30.11R
$$




USA.gov is the U.S. government's official web portal to all federal, state and local government web resources and services.